Simultaneous Nadir Overpasses (SNOs) Predictions

Prediction of SNOs between AQUA and NOAA-19 Satellite Orbit:

Table of predicted SNOs for the next 14.0 days since TLE Epoch: 6/3/2016
Index Date (AQUA) Time (AQUA) Lat,Lon (AQUA) SZA (AQUA ) Date (NOAA-19) Time (NOAA-19) Lat,Lon (NOAA-19) SZA (NOAA-19 ) Distance(km) Time Diff (sec)
1 06/04/2016 09:16:37 -80.82,-177.75 119.62 06/04/2016 09:16:02 -80.83,-177.75 119.60 0.90 35
2 06/04/2016 10:06:04 80.82, -10.10 60.38 06/04/2016 10:07:03 80.81, -10.03 60.34 1.55 59
3 06/06/2016 14:50:21 80.83, -81.25 60.17 06/06/2016 14:50:08 80.83, -81.37 60.20 2.26 13
4 06/08/2016 20:24:04 -80.83, 15.23 120.01 06/08/2016 20:24:10 -80.83, 15.13 119.99 1.93 6
5 06/11/2016 01:08:21 -80.84, -55.99 120.13 06/11/2016 01:07:14 -80.85, -56.09 120.09 1.88 67
6 06/11/2016 01:57:47 80.82, 111.96 59.82 06/11/2016 01:58:16 80.83, 111.82 59.83 2.61 29
7 06/13/2016 06:42:04 80.84, 40.68 59.73 06/13/2016 06:41:20 80.84, 40.75 59.75 1.29 44
8 06/13/2016 07:31:30 -80.83,-151.62 120.28 06/13/2016 07:32:17 -80.83,-151.72 120.29 1.79 47
9 06/15/2016 12:15:47 -80.85, 137.07 120.33 06/15/2016 12:15:21 -80.85, 137.03 120.31 0.86 26




NCC Satellite Simultaneous Nadir Overpasses (SNOs) Prediction Service
